20100222,1
20100223,1
20100224,1
20100225,1
20100226,1
20100301,1
20100302,1
20100303,1
20100304,1
20100305,1
20100308,1
20100309,1
20100310,1
20100311,1
20100312,1
20100315,1
20100316,1
20100317,1
20100318,1
20100319,1
20100323,1
20100324,1
20100325,1
20100326,1
20100329,1
20100330,1
20100331,1
20100401,1
20100402,1
20100405,1
20100406,1
20100407,1
20100408,1
20100409,1
20100412,1
20100413,1
20100414,1
20100415,1
20100416,1
20100419,2
20100420,2
20100421,2
20100422,2
20100423,3
20100426,3
20100427,3
20100428,3
20100430,3
20100506,3
20100507,3
20100510,3
20100511,3
20100512,3
20100513,3
20100514,3
20100517,3
20100518,3
20100519,3
20100520,3
20100521,3
20100524,3
20100525,3
20100526,3
20100527,3
20100528,3
20100531,3
20100601,3
20100602,3
20100603,3
20100604,3
20100607,3
20100608,3
20100609,3
20100610,3
20100611,3
20100614,3
20100615,3
20100616,3
20100617,3
20100618,3
20100621,3
20100622,3
20100623,3
20100624,3
20100625,3
20100628,3
20100629,3
20100630,3
20100701,3
20100702,3
20100705,3
20100706,3
20100707,3
20100708,3
20100709,3
20100712,3
20100713,3
20100714,3
20100715,3
20100716,3
20100720,3
20100721,3
20100722,3
20100723,3
20100726,3
20100727,3
20100728,3
20100729,3
20100730,3
20100802,3
20100803,3
20100804,3
20100805,3
20100806,3
20100809,3
20100810,3
20100811,3
20100812,3
20100813,3
20100816,3
20100817,3
20100818,3
20100819,3
20100820,3
20100823,3
20100824,3
20100825,3
20100826,3
20100827,3
20100830,3
20100831,3
20100901,3
20100902,3
20100903,3
20100906,3
20100907,3
20100908,3
20100909,3
20100910,3
20100913,3
20100914,3
20100915,3
20100916,3
20100917,3
20100921,3
20100922,3
20100924,3
20100927,3
20100928,3
20100929,3
20100930,3
20101001,3
20101004,3
20101005,3
20101006,3
20101007,3
20101008,3
20101012,3
20101013,3
20101014,3
20101015,3
20101018,3
20101019,3
20101020,3
20101021,3
20101022,3
20101025,3
20101026,3
20101027,3
20101028,3
20101029,3
20101101,4
20101102,3
20101104,3
20101105,3
20101108,1
20101109,1
20101110,1
20101111,1
20101112,1
20101115,1
20101116,1
20101117,1
20101118,1
20101119,1
20101122,1
20101124,1
20101125,1
20101126,1
20101129,1
20101130,1
20101201,1
20101202,1
20101203,1
20101206,1
20101207,1
20101208,1
20101209,1
20101210,1
20101213,1
20101214,1
20101215,1
20101216,2
20101217,2
20101220,2
20101221,2
20101222,2
20101224,2
20101227,2
20101228,2
20101229,2
20101230,2
20110104,2
20110105,2
20110106,2
20110107,2
20110111,2
20110112,2
20110113,2
20110114,2
20110117,2
20110118,2
20110119,3
20110120,3
20110121,3
20110124,3
20110125,3
20110126,3
20110127,3
20110128,3
20110131,3
20110201,3
20110202,4
20110203,4
20110204,4
20110207,4
20110208,4
20110209,4
20110210,4
20110214,4
20110215,4
20110216,4
20110217,4
20110218,4
20110221,4
20110222,4
20110223,4
20110224,4
20110225,4
20110228,4
20110301,4
20110302,4
20110303,4
20110304,4
20110307,4
20110308,4
20110309,4
20110310,4
20110311,4
20110314,4
20110315,3
20110316,4
20110317,4
20110318,4
20110322,4
20110323,4
20110324,4
20110325,4
20110328,4
20110329,4
20110330,4
20110331,4
20110401,4
20110404,4
20110405,4
20110406,4
20110407,4
20110408,4
20110411,4
20110412,4
20110413,4
20110414,4
20110415,4
20110418,4
20110419,4
20110420,4
20110421,4
20110422,4
20110425,4
20110426,4
20110427,4
20110428,4
20110502,4
20110506,4
20110509,4
20110510,4
20110511,4
20110512,4
20110513,4
20110516,4
20110517,5
20110518,5
20110519,5
20110520,5
20110523,5
20110524,5
20110525,5
20110526,5
20110527,5
20110530,5
20110531,5
20110601,5
20110602,5
20110603,5
20110606,5
20110607,5
20110608,5
20110609,5
20110610,5
20110613,5
20110614,5
20110615,5
20110616,5
20110617,5
20110620,5
20110621,5
20110622,5
20110623,5
20110624,5
20110627,5
20110628,5
20110629,5
20110630,5
20110701,5
20110704,5
20110705,5
20110706,5
20110707,5
20110708,5
20110711,5
20110712,5
20110713,5
20110714,5
20110715,5
20110719,5
20110720,5
20110721,5
20110722,5
20110725,5
20110726,5
20110727,5
20110728,5
20110729,5
20110801,5
20110802,5
20110803,5
20110804,5
20110805,5
20110808,5
20110809,5
20110810,5
20110811,5
20110812,5
20110815,5
20110816,5
20110817,5
20110818,5
20110819,5
20110822,5
20110823,5
20110824,5
20110825,5
20110826,5
20110829,5
20110830,5
20110831,5
20110901,5
20110902,5
20110905,5
20110906,5
20110907,5
20110908,5
20110909,5
20110912,5
20110913,5
20110914,5
20110915,5
20110916,5
20110920,5
20110921,5
20110922,5
20110926,5
20110927,5
20110928,5
20110929,5
20110930,5
20111003,5
20111004,5
20111005,4
20111006,4
20111007,4
20111011,4
20111012,4
20111013,5
20111014,5
20111017,5
20111018,5
20111019,5
20111020,5
20111021,5
20111024,5
20111025,5
20111026,5
20111027,5
20111028,5
20111031,5
20111101,5
20111102,5
20111104,5
20111107,5
20111108,5
20111109,5
20111110,5
20111111,5
20111114,5
20111115,5
20111116,5
20111117,4
20111118,4
20111121,4
20111122,4
20111124,4
20111125,4
20111128,4
20111129,5
20111130,5
20111201,5
20111202,5
20111205,5
20111206,5
20111207,5
20111208,5
20111209,5
20111212,5
20111213,5
20111214,5
20111215,4
20111216,4
20111219,5
20111220,5
20111221,5
20111222,4
20111226,4
20111227,5
20111228,5
20111229,4
20111230,5
20120104,5
20120105,5
20120106,5
20120110,5
20120111,5
20120112,5
20120113,4
20120116,4
20120117,4
20120118,4
20120119,5
20120120,5
20120123,5
20120124,5
20120125,5
20120126,5
20120127,5
20120130,5
20120131,5
20120201,4
20120202,4
20120203,4
20120206,4
20120207,4
20120208,4
20120209,4
20120210,4
20120213,4
20120214,4
20120215,4
20120216,4
20120217,4
20120220,4
20120221,4
20120222,4
20120223,4
20120224,5
20120227,5
20120228,5
20120229,5
20120301,5
20120302,5
20120305,5
20120306,5
20120307,5
20120308,5
20120309,8
20120312,8
20120313,87
20120314,128
20120315,131
20120316,247
20120319,393
20120321,516
20120322,537
20120323,616
20120326,711
20120327,780
20120328,861
20120329,1098
20120330,1297
20120402,1733
20120403,1716
20120404,1700
20120405,1692
20120406,1731
20120409,1726
20120410,1735
20120411,1726
20120412,1711
20120413,1738
20120416,1781
20120417,1782
20120418,1846
20120419,1859
20120420,1911
20120423,1946
20120424,2007
20120425,2116
20120426,2312
20120427,2639
20120501,3046
20120502,3054
20120507,3003
20120508,2989
20120509,3009
20120510,2985
20120511,2942
20120514,2933
20120515,2896
20120516,2865
20120517,2891
20120518,2857
20120521,2854
20120522,2892
20120523,2885
20120524,2903
20120525,2950
20120528,3036
20120529,3138
20120530,3354
20120531,3657
20120601,4153
20120604,4033
20120605,4059
20120606,4070
20120607,4119
20120608,4126
20120611,4147
20120612,4137
20120613,4146
20120614,4144
20120615,4163
20120618,4233
20120619,4272
20120620,4403
20120621,4549
20120622,4690
20120625,4834
20120626,4956
20120627,5048
20120628,5405
20120629,5746
20120702,6106
20120703,6075
20120704,6058
20120705,6057
20120706,6041
20120709,5995
20120710,5956
20120711,5990
20120712,5955
20120713,6046
20120717,6095
20120718,6082
20120719,6105
20120720,6124
20120723,6094
20120724,6272
20120725,6448
20120726,6657
20120727,7025
20120730,7376
20120731,7787
20120801,8469
20120802,8497
20120803,8517
20120806,8590
20120807,8637
20120808,8595
20120809,8561
20120810,8542
20120813,8499
20120814,8550
20120815,8581
20120816,8638
20120817,8755
20120820,8796
20120821,8866
20120822,9016
20120823,9009
20120824,9233
20120827,9445
20120828,9786
20120829,9932
20120830,10085
20120831,10926
20120903,12037
20120904,11973
20120905,12015
20120906,12048
20120907,12094
20120910,12064
20120911,12031
20120912,11918
20120913,12114
20120914,12267
20120918,12367
20120919,12377
20120920,12352
20120921,12252
20120924,12132
20120925,12053
20120926,12035
20120927,12232
20120928,12271
20121001,13081
20121002,12972
20121003,12909
20121004,12963
20121005,12778
20121009,12743
20121010,12764
20121011,12828
20121012,12670
20121015,12711
20121016,12791
20121017,12997
20121018,12953
20121019,12910
20121022,13081
20121023,13188
20121024,13475
20121025,13802
20121026,14050
20121029,14952
20121030,15441
20121031,15820
20121101,16828
20121102,17056
20121105,16871
20121106,16822
20121107,16921
20121108,16930
20121109,16870
20121112,16579
20121113,16623
20121114,16948
20121115,17266
20121116,17599
20121119,17836
20121120,18036
20121121,18299
20121122,18511
20121126,18641
20121127,18981
20121128,19117
20121129,19523
20121130,20108
20121203,21030
20121204,20945
20121205,20885
20121206,20901
20121207,21035
20121210,21019
20121211,20931
20121212,20878
20121213,21147
20121214,21541
20121217,21803
20121218,22157
20121219,22422
20121220,22730
20121221,23643
20121225,24031
20121226,24188
20121227,24198
20121228,24442
20130104,25511
20130107,25527
20130108,25018
20130109,24724
20130110,24593
20130111,24597
20130115,22696
20130116,22490
20130117,22326
20130118,22677
20130121,22514
20130122,22500
20130123,22481
20130124,22703
20130125,22801
20130128,23005
20130129,23330
20130130,23606
20130131,24065
20130201,24314
20130204,24108
20130205,23876
20130206,24351
20130207,24357
20130208,24336
20130212,24337
20130213,24055
20130214,24051
20130215,23786
20130218,24135
20130219,24401
20130220,24557
20130221,24348
20130222,24204
20130225,24227
20130226,23902
20130227,23946
20130228,24055
20130301,25112
20130304,25700
20130305,25312
20130306,25697
20130307,25725
20130308,25399
20130311,25874
20130312,26004
20130313,26420
20130314,27454
20130315,28337
20130318,27834
20130319,27394
20130321,27728
20130322,28336
20130325,29212
20130326,29008
20130327,29463
20130328,28345
20130329,28295
20130401,26407
20130402,26396
20130403,25272
20130404,25290
20130405,25055
20130408,24763
20130409,23791
20130410,23729
20130411,23399
20130412,22702
20130415,22264
20130416,21506
20130417,21355
20130418,21255
20130419,21841
20130422,21615
20130423,21428
20130424,21266
20130425,21056
20130426,20657
20130430,20668
20130501,20746
20130502,20528
20130507,20414
20130508,20355
20130509,19699
20130510,19156
20130513,18187
20130514,17459
20130515,17152
20130516,17240
20130517,17994
20130520,18873
20130521,18458
20130522,17957
20130523,17019
20130524,16451
20130527,16775
20130528,16696
20130529,16435
20130530,16048
20130531,15830
20130603,15597
20130604,15617
20130605,15291
20130606,14729
20130607,14801
20130610,14730
20130611,14869
20130612,14462
20130613,14135
20130614,14929
20130617,14692
20130618,14891
20130619,14674
20130620,14219
20130621,14273
20130624,14237
20130625,13895
20130626,13920
20130627,14220
20130628,14983
20130701,15138
20130702,15300
20130703,15279
20130704,15214
20130705,15230
20130708,15135
20130709,15049
20130710,14969
20130711,15071
20130712,14568
20130716,14394
20130717,14312
20130718,14372
20130719,14106
20130722,14204
20130723,14204
20130724,13942
20130725,13972
20130726,13852
20130729,13601
20130730,13416
20130731,13323
20130801,14045
20130802,14022
20130805,14118
20130806,13985
20130807,13814
20130808,13794
20130809,13925
20130812,13866
20130813,13964
20130814,14105
20130815,14186
20130816,14021
20130819,14039
20130820,14153
20130821,14175
20130822,13903
20130823,13990
20130826,14020
20130827,13951
20130828,14036
20130829,14108
20130830,14516
20130902,14824
20130903,15108
20130904,15059
20130905,15115
20130906,15015
20130909,15418
20130910,15896
20130911,16195
20130912,16167
20130913,16308
20130917,16458
20130918,16662
20130919,17144
20130920,17115
20130924,17375
20130925,17912
20130926,18038
20130927,18613
20130930,19294
20131001,19361
20131002,18751
20131003,19057
20131004,19072
20131007,18909
20131008,18995
20131009,19461
20131010,19520
20131011,19537
20131015,18710
20131016,18796
20131017,18939
20131018,19119
20131021,19409
20131022,19519
20131023,19787
20131024,20032
20131025,20303
20131028,20699
20131029,20955
20131030,21456
20131031,22106
20131101,22850
20131105,22814
20131106,22594
20131107,22382
20131108,22417
20131111,22530
20131112,22575
20131113,22651
20131114,23009
20131115,23539
20131118,23425
20131119,23453
20131120,23563
20131121,23528
20131122,24185
20131125,24492
20131126,25057
20131127,25829
20131128,26970
20131129,27914
20131202,29349
20131203,29415
20131204,29425
20131205,29102
20131206,29218
20131209,29599
20131210,29539
20131211,29593
20131212,29388
20131213,29882
20131216,30044
20131217,30264
20131218,30624
20131219,30813
20131220,31326
20131224,31350
20131225,31455
20131226,32584
20131227,33094
20131230,35041
20140106,35501
20140107,35010
20140108,34641
20140109,34599
20140110,34894
20140114,33166
20140115,33418
20140116,33955
20140117,34476
20140120,34667
20140121,34688
20140122,35107
20140123,35256
20140124,35312
20140127,35449
20140128,35816
20140129,36981
20140130,36953
20140131,37549
20140203,37320
20140204,36792
20140205,36795
20140206,37008
20140207,37512
20140210,37585
20140212,37754
20140213,37414
20140214,37423
20140217,37928
20140218,38237
20140219,38354
20140220,38694
20140221,38917
20140224,38906
20140225,39369
20140226,39777
20140227,40111
20140228,40265
20140303,40678
20140304,40502
20140305,40345
20140306,40346
20140307,40695
20140310,40728
20140311,40519
20140312,39773
20140313,40072
20140314,39789
20140317,39893
20140318,40126
20140319,40051
20140320,39817
20140324,39965
20140325,40336
20140326,40453
20140327,41360
20140328,41106
20140331,41492
20140401,42539
20140402,42849
20140403,42854
20140404,42314
20140407,42941
20140408,42471
20140409,42070
20140410,42332
20140411,42060
20140414,40393
20140415,40159
20140416,40456
20140417,40918
20140418,41690
20140421,41677
20140422,42230
20140423,42137
20140424,42442
20140425,42789
20140428,42870
20140430,43685
20140501,44413
20140502,44303
20140507,44341
20140508,44309
20140509,44652
20140512,44559
20140513,44664
20140514,44740
20140515,44856
20140516,45111
20140519,44880
20140520,45106
20140521,45215
20140522,45684
20140523,45857
20140526,45830
20140527,46381
20140528,46979
20140529,46960
20140530,48063
20140602,48363
20140603,48850
20140604,48498
20140605,48296
20140606,48626
20140609,48710
20140610,48610
20140611,49091
20140612,48987
20140613,49466
20140616,49670
20140617,49987
20140618,50489
20140619,50718
20140620,52124
20140623,51266
20140624,51658
20140625,52398
20140626,52772
20140627,53576
20140630,54573
20140701,55336
20140702,55217
20140703,55485
20140704,55320
20140707,55574
20140708,55463
20140709,55747
20140710,55782
20140711,55716
20140714,53286
20140715,54052
20140716,54900
20140717,54756
20140718,55259
20140722,55553
20140723,55709
20140724,55806
20140725,56175
20140728,56264
20140729,56500
20140730,56961
20140731,57613
20140801,58125
20140804,58215
20140805,58567
20140806,58296
20140807,57826
20140808,57787
20140811,58325
20140812,58241
20140813,58443
20140814,59162
20140815,59471
20140818,59772
20140819,59980
20140820,59929
20140821,60430
20140822,60568
20140825,60519
20140826,60736
20140827,61293
20140828,61474
20140829,61820
20140901,61891
20140902,62176
20140903,62105
20140904,62154
20140905,62018
20140908,61799
20140909,61625
20140910,62520
20140911,62516
20140912,62420
20140916,62205
20140917,62521
20140918,62623
20140919,62915
20140922,63317
20140924,62987
20140925,63686
20140926,63906
20140929,64974
20140930,65261
20141001,65402
20141002,64382
20141003,64558
20141006,65379
20141007,64997
20141008,65070
20141009,64611
20141010,65149
20141014,61853
20141015,61812
20141016,61899
20141017,61321
20141020,62728
20141021,62648
20141022,62976
20141023,63372
20141024,62954
20141027,63313
20141028,63281
20141029,63615
20141030,64224
20141031,66556
20141104,67708
20141105,66550
20141106,65042
20141107,65897
20141110,66834
20141111,67527
20141112,67896
20141113,67832
20141114,68900
20141117,68931
20141118,69159
20141119,69917
20141120,70634
20141121,71323
20141125,72052
20141126,72330
20141127,72470
20141128,73960
20141201,75646
20141202,76298
20141203,76614
20141204,75141
20141205,75449
20141208,75593
20141209,76328
20141210,76029
20141211,76759
20141212,76343
20141215,76231
20141216,75469
20141217,75299
20141218,75482
20141219,76924
20141222,76847
20141224,77437
20141225,77286
20141226,78284
20141229,78613
20141230,79447
20150105,79722
20150106,79761
20150107,79886
20150108,80939
20150109,81932
20150113,79325
20150114,80574
20150115,81306
20150116,80883
20150119,80096
20150120,80000
20150121,79705
20150122,78523
20150123,79433
20150126,78245
20150127,77954
20150128,77553
20150129,76765
20150130,76550
20150202,76121
20150203,73800
20150204,74613
20150205,75560
20150206,77249
20150209,75154
20150210,74165
20150212,76114
20150213,75791
20150216,75727
20150217,76378
20150218,77139
20150219,76362
20150220,76493
20150223,77039
20150224,77657
20150225,77898
20150226,78721
20150227,78828
20150302,79165
20150303,79085
20150304,77951
20150305,78123
20150306,78177
20150309,77060
20150310,76627
20150311,76411
20150312,75991
20150313,76616
20150316,77176
20150317,77150
20150318,77834
20150319,78199
20150320,78888
20150323,79154
20150324,80423
20150325,81943
20150326,81054
20150327,81934
20150330,80816
20150331,80919
20150401,80246
20150402,80661
20150403,80883
20150406,81049
20150407,82182
20150408,82371
20150409,83596
20150410,84721
20150413,80030
20150414,80894
20150415,80920
20150416,82063
20150417,81769
20150420,80998
20150421,81529
20150422,81822
20150423,82383
20150424,82428
20150427,82582
20150428,82423
20150430,82632
20150501,82360
20150507,81426
20150508,82011
20150511,83299
20150512,82606
20150513,82647
20150514,82684
20150515,83062
20150518,83889
20150519,83479
20150520,83762
20150521,83935
20150522,84060
20150525,85107
20150526,85629
20150527,85531
20150528,85739
20150529,85391
20150601,86179
20150602,85777
20150603,85755
20150604,84736
20150605,84547
20150608,84790
20150609,85186
20150610,85263
20150611,84706
20150612,84634
20150615,85233
20150616,85276
20150617,84929
20150618,84909
20150619,84593
20150622,85379
20150623,85535
20150624,85592
20150625,85508
20150626,86040
20150629,85971
20150630,85526
20150701,86062
20150702,84416
20150703,83893
20150706,82891
20150707,81924
20150708,81092
20150709,79988
20150710,78712
20150713,80132
20150714,80958
20150715,82204
20150716,83388
20150717,83252
20150721,82871
20150722,83903
20150723,82821
20150724,83437
20150727,83103
20150728,83146
20150729,82851
20150730,83310
20150731,84023
20150803,85009
20150804,85172
20150805,84970
20150806,84321
20150807,83909
20150810,83802
20150811,83277
20150812,82420
20150813,82487
20150814,82331
20150817,82566
20150818,82990
20150819,82839
20150820,82493
20150821,81321
20150824,77959
20150825,75594
20150826,75140
20150827,76808
20150828,77761
20150831,77496
20150901,75662
20150902,74488
20150903,74865
20150904,73538
20150907,72964
20150908,71591
20150909,72050
20150910,72132
20150911,74402
20150914,74401
20150915,74755
20150916,74352
20150917,76029
20150918,76363
20150924,76681
20150925,79825
20150928,79916
20150929,77717
20150930,79967
20151001,81414
20151002,81033
20151005,81189
20151006,81756
20151007,80594
20151008,80494
20151009,81299
20151013,79628
20151014,80042
20151015,79461
20151016,80754
20151019,80772
20151020,80562
20151021,80331
20151022,80249
20151023,80988
20151026,80635
20151027,81971
20151028,82312
20151029,82668
20151030,82614
20151102,82087
20151104,81958
20151105,82458
20151106,82278
20151109,82037
20151110,82096
20151111,82205
20151112,81847
20151113,82195
20151116,81926
20151117,82526
20151118,82352
20151119,82527
20151120,83395
20151124,83030
20151125,83324
20151126,83753
20151127,83973
20151130,83421
20151201,84058
20151202,82932
20151203,83258
20151204,82963
20151207,82938
20151208,83032
20151209,82768
20151210,82246
20151211,81626
20151214,81517
20151215,80070
20151216,81239
20151217,81584
20151218,82672
20151221,82543
20151222,82792
20151224,82723
20151225,82737
20151228,82982
20151229,83016
20151230,83161
20160104,82409
20160105,81990
20160106,81831
20160107,81356
20160108,80463
20160112,77763
20160113,79121
20160114,78964
20160115,78622
20160118,78315
20160119,78074
20160120,77207
20160121,76469
20160122,77297
20160125,78641
20160126,79292
20160127,80794
20160128,79745
20160129,84085
20160201,87480
20160202,86085
20160203,86926
20160204,86617
20160205,85977
20160208,85856
20160209,83817
20160210,82159
20160212,79707
20160215,83711
20160216,85595
20160217,84816
20160218,83902
20160219,86165
20160222,86321
20160223,86155
20160224,88126
20160225,89446
20160226,90149
20160229,90355
20160301,91134
20160302,91696
20160303,90660
20160304,90802
20160307,90468
20160308,90821
20160309,90511
20160310,89848
20160311,91227
20160314,90328
20160315,90609
20160316,90258
20160317,90412
20160318,90700
20160322,92688
20160323,92120
20160324,91059
20160325,91201
20160328,91324
20160329,91767
20160330,91822
20160331,92567
20160401,91418
20160404,93592
20160405,94388
20160406,93251
20160407,93720
20160408,93730
20160411,93410
20160412,90824
20160413,91230
20160414,91654
20160415,91341
20160418,90889
20160419,91167
20160420,91530
20160421,93068
20160422,94068
20160425,96638
20160426,96594
20160427,95226
20160428,95283
20160502,95210
20160506,94807
20160509,96218
20160510,97105
20160511,96001
20160512,94972
20160513,95064
20160516,95130
20160517,95507
20160518,95249
20160519,94263
20160520,94360
20160523,94120
20160524,94658
20160525,94922
20160526,94276
20160527,94542
20160530,95015
20160531,95413
20160601,95944
20160602,95071
20160603,96401
20160606,95846
20160607,95428
20160608,95442
20160609,96021
20160610,95499
20160613,94371
20160614,93464
20160615,93520
20160616,92364
20160617,91749
20160620,93113
20160621,93574
20160622,92145
20160623,91557
20160624,87419
20160627,87009
20160628,90586
20160629,91219
20160630,92791
20160701,93421
20160704,93488
20160705,93232
20160706,92741
20160707,93170
20160708,92167
20160711,92784
20160712,91102
20160713,91025
20160714,92204
20160715,90652
20160719,91466
20160720,92086
20160721,91892
20160722,91557
20160725,91428
20160726,91819
20160727,91240
20160728,92703
20160729,92563
20160801,91906
20160802,91446
20160803,90882
20160804,91623
20160805,90999
20160808,90980
20160809,91204
20160810,91518
20160812,91543
20160815,91695
20160816,90645
20160817,90852
20160818,91060
20160819,90362
20160822,89880
20160823,90463
20160824,90433
20160825,90925
20160826,91301
20160829,92181
20160830,91715
20160831,91557
20160901,91994
20160902,91783
20160905,91530
20160906,92456
20160907,92546
20160908,92122
20160909,91579
20160912,90868
20160913,91915
20160914,91138
20160915,90946
20160916,90810
20160920,90719
20160921,90263
20160923,90525
20160926,90881
20160927,91070
20160928,91049
20160929,90034
20160930,91446
20161003,91450
20161004,91192
20161005,90669
20161006,90374
20161007,90432
20161011,90271
20161012,88629
20161013,89006
20161014,88318
20161017,88437
20161018,87603
20161019,88189
20161020,88695
20161021,87991
20161024,88585
20161025,88789
20161026,88925
20161027,88513
20161028,87508
20161031,88867
20161101,88679
20161102,88216
20161104,87484
20161107,87834
20161108,87673
20161109,87317
20161110,87194
20161111,86295
20161114,84980
20161115,85408
20161116,85227
20161117,86198
20161118,85514
20161121,85283
20161122,85285
20161124,85745
20161125,85885
20161128,87190
20161129,87490
20161130,88630
20161201,88352
20161202,88555
20161205,88246
20161206,88427
20161207,88692
20161208,89438
20161209,88761
20161212,88429
20161213,88385
20161214,88557
20161215,88304
20161216,88617
20161219,88491
20161220,89477
20161221,89033
20161222,89134
20161226,89740
20161227,90113
20161228,90702
20161229,90874
20161230,91842
20170104,91808
20170105,92287
20170106,92244
20170110,91119
20170111,91348
20170112,89660
20170113,89820
20170116,89534
20170117,89028
20170118,89275
20170119,89394
20170120,89775
20170123,89761
20170124,89473
20170125,89562
20170126,89845
20170127,90124
20170130,90265
20170131,89889
20170201,89716
20170202,89144
20170203,89145
20170206,89109
20170207,88982
20170208,88198
20170209,87748
20170210,87893
20170213,87287
20170214,86902
20170215,87041
20170216,86629
20170217,86652
20170220,86826
20170221,86756
20170222,86867
20170223,87208
20170224,88183
20170227,87748
20170228,87174
20170301,86863
20170302,86360
20170303,86374
20170306,86467
20170307,86058
20170308,85433
20170309,85907
20170310,84936
20170313,85219
20170314,84497
20170315,84459
20170316,84912
20170317,84987
20170321,84216
20170322,84201
20170323,83891
20170324,83718
20170327,83635
20170328,83836
20170329,83592
20170330,83286